Location: Homewood
(41.1836°S, 175.9581°E)
Time: 13:36:56
(UTC+00:00)

Cosmos 1867 - Visible Passes

Search period start: 09 December 2025 00:00
Search period end: 19 December 2025 00:00
Orbit: 777 x 796 km, 65.0° (Epoch: 09 December)

Date Brightness Start Highest point End Pass type
(mag) Time Alt. Az. Time Alt. Az. Time Alt. Az.
09 Dec 4.7 08:37:24 10° NNE 08:41:25 22° ENE 08:45:28 10° ESE visible
09 Dec 4.2 10:19:16 10° NW 10:24:34 55° SW 10:29:54 10° SSE visible
09 Dec 6.4 12:07:08 10° WSW 12:09:21 12° SSW 12:11:34 10° S visible
10 Dec 5.1 08:06:31 10° NE 08:09:34 15° ENE 08:12:38 10° ESE visible
10 Dec 3.7 09:47:04 10° NW 09:52:28 75° WSW 09:57:54 10° SSE visible
10 Dec 6.3 11:33:49 10° WSW 11:36:58 15° SW 11:40:08 10° S visible
11 Dec 3.5 09:15:01 10° NNW 09:20:25 81° ENE 09:25:51 10° SE visible
11 Dec 6.1 11:00:47 10° W 11:04:37 19° SW 11:08:29 10° S visible
12 Dec 3.6 08:43:06 10° NNW 08:48:23 59° ENE 08:53:43 10° SE visible
12 Dec 5.8 10:27:58 10° W 10:32:20 24° SW 10:36:44 10° S visible
12 Dec 6.7 15:48:24 10° S 15:51:12 14° SE 15:53:58 10° ESE visible
13 Dec 3.9 08:11:22 10° N 08:16:25 42° ENE 08:21:31 10° SE visible
13 Dec 5.5 09:55:19 10° WNW 10:00:06 31° SW 10:04:54 10° SSE visible
13 Dec 7.0 15:17:10 10° SSE 15:18:47 11° SSE 15:20:24 10° SE visible
14 Dec 5.0 09:22:49 10° WNW 09:27:54 40° SW 09:33:01 10° SSE visible
15 Dec 4.4 08:50:28 10° NW 08:55:45 54° SW 09:01:05 10° SSE visible
15 Dec 6.8 10:38:25 10° SW 10:40:34 12° SSW 10:42:42 10° S visible
15 Dec 6.0 15:54:39 10° SSW 15:59:19 28° SE 16:03:58 10° ENE visible
16 Dec 3.9 08:18:15 10° NW 08:23:39 73° SW 08:29:05 10° SSE visible
16 Dec 6.7 10:05:04 10° WSW 10:08:10 15° SW 10:11:17 10° S visible
16 Dec 6.4 15:22:51 10° S 15:27:03 22° SE 15:31:15 10° E visible
17 Dec 6.5 09:32:01 10° W 09:35:49 19° SW 09:39:38 10° S visible
17 Dec 6.7 14:51:08 10° S 14:54:45 18° SE 14:58:21 10° E visible
18 Dec 6.2 08:59:11 10° W 09:03:32 24° SW 09:07:54 10° S visible
18 Dec 6.8 14:19:33 10° S 14:22:24 14° SE 14:25:13 10° ESE visible
18 Dec 4.1 16:01:35 10° SSW 16:07:00 67° SE 16:12:23 10° NE visible
